CREW DRAGON 2

Last updated on Tue Nov 09 2021 00:02:04 GMT+0000 (Coordinated Universal Time)

1 48209U 21030A 21311.55418083 .00008903 00000-0 16975-3 0 9992 2 48209 51.6452 353.8226 0003410 183.9228 341.1990 15.48969476310817
UTC large
Height (km)
Speed (km/s)
/
Latitude / Longitude
Inclination (degrees)
Orbital Period (minutes)
Azimuth
Elevation
Range (km)
Doppler Factor

Next 0 passes for location: London (51.5072 / 0.1276)

Sorry there are no passes over London.